Home   Weather   Grande Prairie   Past weeks
Flag for Canada

Past Weather in Grande Prairie, Alberta, Canada — Yesterday and Last 2 Weeks

Now
39 °F

Passing clouds.


Feels Like: 30 °F
Forecast: 52 / 38 °F
Wind: 17 mph from West

Location: Grande Prairie

Current Time: Apr 19, 2019 at 6:33:14 am

Latest Report: Apr 19, 2019 at 5:00 am


Visibility: 25 mi

Pressure: 29.81 "Hg (27.49 "Hg at 657m altitude)

Humidity: 70%

Dew Point: 30 °F

Location of Grande PrairieLocation

Past Weather in Grande Prairie — Graph

°F

Grande Prairie Temperature Yesterday

Maximum temperature yesterday: 61 °F (at 3:00 pm)
Minimum temperature yesterday: 34 °F (at 2:00 am)
Average temperature yesterday: 46 °F

High & Low Weather Summary for the Past Weeks

 TemperatureHumidityPressure
High61 °F (Apr 18, 3:00 pm)100% (Apr 7, 7:00 am)30.10 "Hg (Apr 7, 7:00 am)
Low21 °F (Apr 4, 8:18 am)24% (Apr 9, 6:00 pm)29.44 "Hg (Apr 14, 12:00 am)
Average38 °F68%29.84 "Hg
* Reported Apr 4 5:00 am — Apr 19 5:00 am, Grande Prairie. Weather by CustomWeather, © 2019

Note: Actual official high and low records may vary slightly from our data, if they occured in-between our weather recording intervals... More about our weather records

Advertising

Grande Prairie Weather History for the Previous 24 Hours

Scroll right to see more
 ConditionsComfort  
Time TempWeatherWind HumidityBarometerVisibility
5:00 am
Fri, Apr 19
39 °FPassing clouds.17 mph70%29.81 "Hg25 mi
4:00 am41 °FOvercast.17 mph70%29.79 "Hg25 mi
3:00 am43 °FOvercast.16 mph66%29.78 "Hg25 mi
2:00 am43 °FOvercast.18 mph66%29.79 "Hg25 mi
1:00 am43 °FOvercast.13 mph66%29.79 "Hg25 mi
12:00 am45 °FOvercast.15 mph57%29.80 "Hg25 mi
11:00 pm
Thu, Apr 18
45 °FOvercast.16 mph57%29.80 "Hg25 mi
10:00 pm45 °FPassing clouds.13 mph57%29.81 "Hg25 mi
9:00 pm46 °FPartly sunny.14 mph53%29.81 "Hg25 mi
8:00 pm50 °FPartly sunny.15 mph50%29.83 "Hg25 mi
7:00 pm52 °FBroken clouds.17 mph47%29.84 "Hg25 mi
6:00 pm54 °FOvercast.16 mph38%29.84 "Hg25 mi
5:00 pm55 °FOvercast.21 mph36%29.85 "Hg25 mi
4:00 pm57 °FBroken clouds.21 mph29%29.85 "Hg25 mi
3:00 pm61 °FBroken clouds.21 mph31%29.86 "Hg25 mi
2:00 pm59 °FScattered clouds.21 mph31%29.89 "Hg25 mi
1:00 pm59 °FPartly sunny.23 mph34%29.90 "Hg25 mi
12:00 pm55 °FPartly sunny.13 mph41%29.93 "Hg25 mi
11:00 am52 °FPartly sunny.15 mph47%29.94 "Hg25 mi
10:00 am46 °FPartly sunny.7 mph53%29.95 "Hg25 mi
9:00 am41 °FOvercast.6 mph57%29.98 "Hg25 mi
8:00 am36 °FBroken clouds.6 mph75%29.97 "Hg25 mi
7:00 am36 °FCloudy.6 mph70%29.98 "Hg25 mi
6:00 am37 °FMostly cloudy.5 mph65%29.98 "Hg25 mi
Weather by CustomWeather, © 2019

See weather overview